TimeCDT,TemperatureF,Dew PointF,Humidity,Sea Level PressureIn,VisibilityMPH,Wind Direction,Wind SpeedMPH,Gust SpeedMPH,PrecipitationIn,Events,Conditions,WindDirDegrees,DateUTC
12:13 AM,57.2,41.0,55,29.91,10.0,West,3.5,-,N/A,,Clear,260,2013-05-16 05:13:00
12:32 AM,55.4,41.0,58,29.92,10.0,WNW,5.8,-,N/A,,Clear,300,2013-05-16 05:32:00
12:53 AM,55.4,41.0,58,29.92,10.0,WNW,4.6,-,N/A,,Clear,290,2013-05-16 05:53:00
1:12 AM,55.4,41.0,58,29.92,10.0,Calm,Calm,-,N/A,,Clear,0,2013-05-16 06:12:00
1:32 AM,59.0,41.0,51,29.91,10.0,WSW,3.5,-,N/A,,Clear,250,2013-05-16 06:32:00
1:53 AM,59.0,41.0,51,29.91,10.0,WSW,3.5,-,N/A,,Clear,240,2013-05-16 06:53:00
2:13 AM,59.0,41.0,51,29.91,10.0,Calm,Calm,-,N/A,,Clear,0,2013-05-16 07:13:00
2:32 AM,59.0,41.0,51,29.91,10.0,Calm,Calm,-,N/A,,Clear,0,2013-05-16 07:32:00
2:52 AM,59.0,41.0,51,29.91,10.0,Calm,Calm,-,N/A,,Clear,0,2013-05-16 07:52:00
3:13 AM,59.0,41.0,51,29.90,10.0,Calm,Calm,-,N/A,,Clear,0,2013-05-16 08:13:00
3:32 AM,55.4,41.0,58,29.90,10.0,Calm,Calm,-,N/A,,Clear,0,2013-05-16 08:32:00
3:52 AM,55.4,41.0,58,29.90,10.0,WSW,3.5,-,N/A,,Clear,250,2013-05-16 08:52:00
4:13 AM,53.6,41.0,62,29.90,10.0,West,3.5,-,N/A,,Clear,260,2013-05-16 09:13:00
4:32 AM,53.6,41.0,62,29.90,10.0,West,4.6,-,N/A,,Clear,260,2013-05-16 09:32:00
4:52 AM,55.4,41.0,58,29.91,10.0,WSW,4.6,-,N/A,,Clear,250,2013-05-16 09:52:00
5:12 AM,57.2,41.0,55,29.91,10.0,Calm,Calm,-,N/A,,Clear,0,2013-05-16 10:12:00
5:32 AM,57.2,41.0,55,29.91,10.0,SSW,3.5,-,N/A,,Clear,210,2013-05-16 10:32:00
5:52 AM,55.4,41.0,58,29.91,10.0,Calm,Calm,-,N/A,,Clear,0,2013-05-16 10:52:00
6:12 AM,55.4,41.0,58,29.91,10.0,Calm,Calm,-,N/A,,Clear,0,2013-05-16 11:12:00
6:33 AM,55.4,42.8,63,29.92,10.0,Calm,Calm,-,N/A,,Clear,0,2013-05-16 11:33:00
6:52 AM,53.6,42.8,67,29.92,10.0,WSW,3.5,-,N/A,,Clear,250,2013-05-16 11:52:00
7:12 AM,60.8,44.6,55,29.92,10.0,Calm,Calm,-,N/A,,Clear,0,2013-05-16 12:12:00
7:33 AM,62.6,46.4,55,29.92,10.0,Calm,Calm,-,N/A,,Clear,0,2013-05-16 12:33:00
7:52 AM,64.4,44.6,49,29.93,10.0,Calm,Calm,-,N/A,,Clear,0,2013-05-16 12:52:00
8:12 AM,68.0,44.6,43,29.92,10.0,Calm,Calm,-,N/A,,Clear,0,2013-05-16 13:12:00
8:32 AM,69.8,44.6,40,29.93,10.0,SSW,4.6,-,N/A,,Clear,210,2013-05-16 13:32:00
8:52 AM,71.6,44.6,38,29.94,10.0,SSW,8.1,-,N/A,,Clear,200,2013-05-16 13:52:00
9:12 AM,73.4,41.0,31,29.92,10.0,South,6.9,-,N/A,,Clear,180,2013-05-16 14:12:00
9:32 AM,73.4,41.0,31,29.92,10.0,South,5.8,-,N/A,,Clear,180,2013-05-16 14:32:00
9:52 AM,75.2,41.0,29,29.91,10.0,SSE,8.1,-,N/A,,Clear,150,2013-05-16 14:52:00
10:12 AM,77.0,39.2,26,29.91,10.0,ESE,6.9,-,N/A,,Clear,120,2013-05-16 15:12:00
10:32 AM,78.8,37.4,23,29.91,10.0,SSE,8.1,-,N/A,,Clear,150,2013-05-16 15:32:00
10:52 AM,78.8,37.4,23,29.91,10.0,SSE,8.1,-,N/A,,Clear,150,2013-05-16 15:52:00
11:12 AM,78.8,37.4,23,29.90,10.0,SSE,11.5,16.1,N/A,,Clear,160,2013-05-16 16:12:00
11:33 AM,80.6,35.6,20,29.89,10.0,SE,9.2,-,N/A,,Clear,140,2013-05-16 16:33:00
11:52 AM,80.6,33.8,18,29.89,10.0,SSE,10.4,16.1,N/A,,Clear,150,2013-05-16 16:52:00
12:12 PM,82.4,33.8,17,29.89,10.0,SSE,6.9,24.2,N/A,,Clear,160,2013-05-16 17:12:00
12:32 PM,80.6,32.0,17,29.88,10.0,ESE,8.1,18.4,N/A,,Clear,110,2013-05-16 17:32:00
12:52 PM,82.4,32.0,16,29.88,10.0,SE,11.5,-,N/A,,Clear,130,2013-05-16 17:52:00
1:12 PM,82.4,32.0,16,29.87,10.0,East,16.1,-,N/A,,Clear,100,2013-05-16 18:12:00
1:32 PM,82.4,32.0,16,29.86,10.0,SE,10.4,20.7,N/A,,Clear,130,2013-05-16 18:32:00
1:53 PM,84.2,28.4,13,29.86,10.0,East,8.1,20.7,N/A,,Clear,100,2013-05-16 18:53:00
2:12 PM,86.0,28.4,12,29.85,10.0,East,13.8,20.7,N/A,,Clear,90,2013-05-16 19:12:00
2:32 PM,86.0,28.4,12,29.84,10.0,SSE,6.9,16.1,N/A,,Clear,160,2013-05-16 19:32:00
2:53 PM,86.0,30.2,13,29.85,10.0,SE,10.4,18.4,N/A,,Clear,140,2013-05-16 19:53:00
3:12 PM,84.2,28.4,13,29.85,10.0,SE,9.2,-,N/A,,Clear,140,2013-05-16 20:12:00
3:32 PM,84.2,28.4,13,29.85,10.0,South,6.9,21.9,N/A,,Clear,170,2013-05-16 20:32:00
3:53 PM,82.4,28.4,14,29.84,10.0,SSE,8.1,17.3,N/A,,Clear,160,2013-05-16 20:53:00
4:12 PM,82.4,30.2,15,29.83,10.0,ESE,8.1,-,N/A,,Clear,110,2013-05-16 21:12:00
4:32 PM,82.4,28.4,14,29.84,10.0,SSE,8.1,-,N/A,,Clear,160,2013-05-16 21:32:00
5:12 PM,82.4,30.2,15,29.83,10.0,ESE,8.1,-,N/A,,Clear,110,2013-05-16 22:12:00
5:32 PM,80.6,32.0,17,29.82,10.0,ESE,6.9,-,N/A,,Clear,120,2013-05-16 22:32:00
5:52 PM,80.6,32.0,17,29.81,10.0,SSE,3.5,-,N/A,,Clear,150,2013-05-16 22:52:00
6:12 PM,78.8,32.0,18,29.83,10.0,South,4.6,-,N/A,,Clear,170,2013-05-16 23:12:00
6:32 PM,78.8,32.0,18,29.83,10.0,SSE,3.5,-,N/A,,Mostly Cloudy,150,2013-05-16 23:32:00
6:52 PM,78.8,35.6,21,29.83,7.0,Calm,Calm,-,N/A,Rain,Light Rain,0,2013-05-16 23:52:00
7:12 PM,73.4,46.4,38,29.84,7.0,Calm,Calm,-,N/A,Rain,Light Rain,0,2013-05-17 00:12:00
7:33 PM,73.4,44.6,36,29.84,10.0,South,9.2,-,0.02,Rain,Light Rain,180,2013-05-17 00:33:00
7:52 PM,68.0,53.6,60,29.86,10.0,SW,10.4,-,0.03,Rain,Rain,220,2013-05-17 00:52:00
8:12 PM,64.4,57.2,77,29.86,7.0,WSW,6.9,-,0.03,Rain,Rain,240,2013-05-17 01:12:00
8:33 PM,64.4,59.0,83,29.86,10.0,West,3.5,-,0.06,Rain,Light Rain,270,2013-05-17 01:33:00
8:52 PM,64.4,59.0,83,29.85,10.0,Calm,Calm,-,0.06,Rain,Light Rain,0,2013-05-17 01:52:00
9:12 PM,64.4,59.0,83,29.84,10.0,NNE,5.8,-,N/A,,Overcast,30,2013-05-17 02:12:00
9:32 PM,62.6,59.0,88,29.86,10.0,SSW,3.5,-,N/A,,Overcast,200,2013-05-17 02:32:00
9:52 PM,64.4,59.0,83,29.86,10.0,Calm,Calm,-,N/A,Rain,Light Rain,0,2013-05-17 02:52:00
10:13 PM,62.6,59.0,88,29.88,10.0,ESE,4.6,-,0.01,Rain,Rain,110,2013-05-17 03:13:00
10:32 PM,62.6,59.0,88,29.89,10.0,SE,5.8,-,0.01,,Overcast,130,2013-05-17 03:32:00
10:52 PM,62.6,59.0,88,29.87,7.0,East,4.6,-,0.02,Rain,Rain,80,2013-05-17 03:52:00
11:11 PM,62.6,59.0,88,29.88,10.0,NW,8.1,-,N/A,,Overcast,320,2013-05-17 04:11:00
11:32 PM,62.6,59.0,88,29.87,10.0,Calm,Calm,-,N/A,,Overcast,0,2013-05-17 04:32:00
11:52 PM,62.6,59.0,88,29.86,10.0,ENE,3.5,-,0.01,Rain-Thunderstorm,Light Thunderstorms and Rain,60,2013-05-17 04:52:00